| time (UTC) | temp C | wind direction | speed KPH | gust KPH | rain 1hr cm | rain 24hr cm | rain mn cm | humidity % | barometer mb |
| 20260504081528 | 16 | 176 | 3.2 | 0.0 | 0.00 | 0.00 | 0.00 | 75 | 1013.2 |
| 20260504044545 | 18 | 131 | 1.6 | 0.0 | 0.00 | 0.00 | 0.00 | 65 | 1015.5 |
| 20260504043050 | 18 | 122 | 1.6 | 0.0 | 0.00 | 0.00 | 0.00 | 64 | 1015.7 |
| 20260504041545 | 18 | 135 | 0.0 | 0.0 | 0.00 | 0.00 | 0.00 | 62 | 1015.6 |
| 20260504040044 | 17 | 111 | 1.6 | 0.0 | 0.00 | 0.00 | 0.00 | 62 | 1015.8 |
| 20260504034543 | 18 | 140 | 0.0 | 0.0 | 0.00 | 0.00 | 0.00 | 60 | 1015.7 |
| 20260504033043 | 18 | 140 | 0.0 | 0.0 | 0.00 | 0.00 | 0.00 | 58 | 1015.6 |
| 20260504031542 | 18 | 141 | 0.0 | 0.0 | 0.00 | 0.00 | 0.00 | 57 | 1015.6 |
| 20260504030042 | 18 | 148 | 0.0 | 0.0 | 0.00 | 0.00 | 0.00 | 58 | 1015.7 |
| 20260504024544 | 18 | 148 | 0.0 | 0.0 | 0.00 | 0.00 | 0.00 | 57 | 1015.6 |
| 20260504023041 | 18 | 158 | 0.0 | 0.0 | 0.00 | 0.00 | 0.00 | 57 | 1015.5 |
| 20260504021540 | 18 | 133 | 0.0 | 0.0 | 0.00 | 0.00 | 0.00 | 56 | 1015.6 |
| 20260504020117 | 19 | 133 | 0.0 | 0.0 | 0.00 | 0.00 | 0.00 | 55 | 1015.5 |
| 20260504014554 | 20 | 133 | 0.0 | 0.0 | 0.00 | 0.00 | 0.00 | 54 | 1015.1 |
| 20260504013048 | 20 | 133 | 0.0 | 0.0 | 0.00 | 0.00 | 0.00 | 51 | 1015.0 |
| 20260504011539 | 21 | 141 | 0.0 | 0.0 | 0.00 | 0.00 | 0.00 | 48 | 1015.1 |
| 20260504010043 | 21 | 145 | 0.0 | 0.0 | 0.00 | 0.00 | 0.00 | 48 | 1015.1 |
| 20260504004553 | 22 | 148 | 1.6 | 0.0 | 0.00 | 0.00 | 0.00 | 45 | 1015.0 |
| 20260504003037 | 22 | 126 | 1.6 | 0.0 | 0.00 | 0.00 | 0.00 | 46 | 1015.0 |
| 20260504001548 | 23 | 172 | 1.6 | 0.0 | 0.00 | 0.00 | 0.00 | 45 | 1015.2 |
| 20260504000033 | 23 | 144 | 3.2 | 0.0 | 0.00 | 0.00 | 0.00 | 44 | 1015.5 |
| 20260503234534 | 23 | 207 | 1.6 | 0.0 | 0.00 | 0.00 | 0.00 | 43 | 1015.5 |
| 20260503233038 | 24 | 159 | 3.2 | 0.0 | 0.00 | 0.00 | 0.00 | 42 | 1015.7 |
| 20260503231533 | 24 | 131 | 1.6 | 0.0 | 0.00 | 0.00 | 0.00 | 44 | 1015.7 |
| 20260503230033 | 24 | 140 | 3.2 | 0.0 | 0.00 | 0.00 | 0.00 | 42 | 1015.5 |
| 20260503224529 | 25 | 124 | 4.8 | 0.0 | 0.00 | 0.00 | 0.00 | 41 | 1015.6 |
| 20260503223027 | 25 | 165 | 4.8 | 0.0 | 0.00 | 0.00 | 0.00 | 38 | 1016.0 |
| 20260503221526 | 26 | 117 | 3.2 | 0.0 | 0.00 | 0.00 | 0.00 | 39 | 1016.1 |
| 20260503220031 | 26 | 210 | 4.8 | 0.0 | 0.00 | 0.00 | 0.00 | 38 | 1016.3 |
| 20260503214524 | 25 | 226 | 3.2 | 0.0 | 0.00 | 0.00 | 0.00 | 39 | 1016.4 |
| 20260503213021 | 26 | 116 | 4.8 | 0.0 | 0.00 | 0.00 | 0.00 | 38 | 1016.8 |
| 20260503211521 | 25 | 104 | 6.4 | 0.0 | 0.00 | 0.00 | 0.00 | 37 | 1017.0 |
| 20260503210017 | 26 | 226 | 4.8 | 0.0 | 0.00 | 0.00 | 0.00 | 38 | 1017.4 |
| 20260503204516 | 26 | 172 | 6.4 | 0.0 | 0.00 | 0.00 | 0.00 | 38 | 1017.6 |
| 20260503203035 | 26 | 118 | 3.2 | 0.0 | 0.00 | 0.00 | 0.00 | 37 | 1017.8 |
| 20260503201513 | 26 | 120 | 4.8 | 0.0 | 0.00 | 0.00 | 0.00 | 37 | 1018.2 |
| 20260503200012 | 26 | 143 | 3.2 | 0.0 | 0.00 | 0.00 | 0.00 | 36 | 1018.4 |
| 20260503194514 | 26 | 207 | 4.8 | 0.0 | 0.00 | 0.00 | 0.00 | 40 | 1018.6 |
| 20260503193006 | 26 | 162 | 6.4 | 0.0 | 0.00 | 0.00 | 0.00 | 36 | 1018.9 |
| 20260503191505 | 26 | 142 | 4.8 | 0.0 | 0.00 | 0.00 | 0.00 | 40 | 1018.9 |
| 20260503190004 | 26 | 218 | 4.8 | 0.0 | 0.00 | 0.00 | 0.00 | 40 | 1019.2 |
| 20260503184605 | 26 | 168 | 4.8 | 0.0 | 0.00 | 0.00 | 0.00 | 40 | 1019.5 |
| 20260503183102 | 26 | 270 | 3.2 | 0.0 | 0.00 | 0.00 | 0.00 | 42 | 1019.6 |
| 20260503181601 | 26 | 221 | 4.8 | 0.0 | 0.00 | 0.00 | 0.00 | 40 | 1019.9 |
| 20260503180056 | 25 | 118 | 3.2 | 0.0 | 0.00 | 0.00 | 0.00 | 41 | 1020.3 |
| 20260503174552 | 25 | 253 | 4.8 | 0.0 | 0.00 | 0.00 | 0.00 | 43 | 1020.6 |
| 20260503173052 | 25 | 101 | 4.8 | 0.0 | 0.00 | 0.00 | 0.00 | 45 | 1020.7 |
| 20260503171550 | 25 | 153 | 3.2 | 0.0 | 0.00 | 0.00 | 0.00 | 41 | 1020.9 |